Time,TemperatureF,DewpointF,PressureIn,WindDirection,WindDirectionDegrees,WindSpeedMPH,WindSpeedGustMPH,Humidity,HourlyPrecipIn,Conditions,Clouds,dailyrainin,SoftwareType,DateUTC
2013-06-14 00:08:00,78.1,74.6,29.74,West,270,0.0,-999.0,89,-99.99,,,0.00,Acu-Link.com,2013-06-14 04:08:00,
2013-06-14 00:23:00,77.7,74.5,29.75,WNW,292,0.0,-999.0,90,-99.99,,,0.00,Acu-Link.com,2013-06-14 04:23:00,
2013-06-14 00:38:00,77.7,74.5,29.75,WSW,247,1.7,-999.0,90,-99.99,,,0.00,Acu-Link.com,2013-06-14 04:38:00,
2013-06-14 00:54:00,77.5,74.3,29.75,WNW,292,2.2,-999.0,90,-99.99,,,0.00,Acu-Link.com,2013-06-14 04:54:00,
2013-06-14 01:09:00,77.2,74.4,29.74,South,180,1.7,-999.0,91,-99.99,,,0.00,Acu-Link.com,2013-06-14 05:09:00,
2013-06-14 01:24:00,77.2,74.4,29.73,WSW,247,3.7,-999.0,91,-99.99,,,0.00,Acu-Link.com,2013-06-14 05:24:00,
2013-06-14 01:39:00,77.2,74.4,29.72,West,270,2.7,-999.0,91,-99.99,,,0.00,Acu-Link.com,2013-06-14 05:39:00,
2013-06-14 01:54:00,77.2,74.4,29.72,WSW,247,2.7,-999.0,91,-99.99,,,0.00,Acu-Link.com,2013-06-14 05:54:00,
2013-06-14 02:10:00,76.8,74.0,29.71,WNW,292,3.2,-999.0,91,-99.99,,,0.00,Acu-Link.com,2013-06-14 06:10:00,
2013-06-14 02:25:00,76.8,74.0,29.71,WNW,292,1.1,-999.0,91,-99.99,,,0.00,Acu-Link.com,2013-06-14 06:25:00,
2013-06-14 02:40:00,76.8,74.0,29.71,WSW,247,4.7,-999.0,91,-99.99,,,0.00,Acu-Link.com,2013-06-14 06:40:00,
2013-06-14 02:56:00,76.5,74.0,29.71,West,270,2.7,-999.0,92,-99.99,,,0.00,Acu-Link.com,2013-06-14 06:56:00,
2013-06-14 03:11:00,76.1,73.6,29.70,West,270,3.7,-999.0,92,-99.99,,,0.00,Acu-Link.com,2013-06-14 07:11:00,
2013-06-14 03:26:00,75.9,73.4,29.71,SW,225,2.2,-999.0,92,-99.99,,,0.00,Acu-Link.com,2013-06-14 07:26:00,
2013-06-14 03:41:00,75.7,73.2,29.71,SW,225,3.2,-999.0,92,-99.99,,,0.00,Acu-Link.com,2013-06-14 07:41:00,
2013-06-14 03:56:00,75.7,73.2,29.70,West,270,6.3,-999.0,92,-99.99,,,0.00,Acu-Link.com,2013-06-14 07:56:00,
2013-06-14 04:14:00,75.7,73.2,29.69,WSW,247,2.2,-999.0,92,-99.99,,,0.00,Acu-Link.com,2013-06-14 08:14:00,
2013-06-14 04:29:00,75.7,73.2,29.69,WNW,292,3.7,-999.0,92,-99.99,,,0.00,Acu-Link.com,2013-06-14 08:29:00,
2013-06-14 04:44:00,75.9,73.4,29.69,WSW,247,1.7,-999.0,92,-99.99,,,0.00,Acu-Link.com,2013-06-14 08:44:00,
2013-06-14 04:59:00,76.1,73.6,29.67,West,270,3.2,-999.0,92,-99.99,,,0.00,Acu-Link.com,2013-06-14 08:59:00,
2013-06-14 05:15:00,75.9,73.4,29.68,East,90,1.1,-999.0,92,-99.99,,,0.00,Acu-Link.com,2013-06-14 09:15:00,
2013-06-14 05:30:00,75.9,73.4,29.69,SSW,202,2.2,-999.0,92,-99.99,,,0.00,Acu-Link.com,2013-06-14 09:30:00,
2013-06-14 05:45:00,75.7,73.2,29.70,West,270,6.3,-999.0,92,-99.99,,,0.00,Acu-Link.com,2013-06-14 09:45:00,
2013-06-14 06:00:00,75.7,73.2,29.69,SW,225,2.2,-999.0,92,-99.99,,,0.00,Acu-Link.com,2013-06-14 10:00:00,
2013-06-14 06:15:00,75.6,73.1,29.69,WNW,292,3.2,-999.0,92,-99.99,,,0.00,Acu-Link.com,2013-06-14 10:15:00,
2013-06-14 06:30:00,75.6,73.1,29.69,SW,225,4.2,-999.0,92,-99.99,,,0.00,Acu-Link.com,2013-06-14 10:30:00,
2013-06-14 06:46:00,75.6,73.1,29.70,WNW,292,3.2,-999.0,92,-99.99,,,0.00,Acu-Link.com,2013-06-14 10:46:00,
2013-06-14 07:01:00,76.5,74.0,29.69,SW,225,5.3,-999.0,92,-99.99,,,0.00,Acu-Link.com,2013-06-14 11:01:00,
2013-06-14 07:16:00,77.0,74.2,29.70,West,270,4.7,-999.0,91,-99.99,,,0.00,Acu-Link.com,2013-06-14 11:16:00,
2013-06-14 07:31:00,77.5,74.3,29.71,West,270,2.2,-999.0,90,-99.99,,,0.00,Acu-Link.com,2013-06-14 11:31:00,
2013-06-14 07:46:00,79.0,75.1,29.71,SW,225,3.7,-999.0,88,-99.99,,,0.00,Acu-Link.com,2013-06-14 11:46:00,
2013-06-14 08:02:00,80.4,75.5,29.70,West,270,2.7,-999.0,85,-99.99,,,0.00,Acu-Link.com,2013-06-14 12:02:00,
2013-06-14 08:17:00,81.5,75.8,29.71,West,270,4.7,-999.0,83,-99.99,,,0.00,Acu-Link.com,2013-06-14 12:17:00,
2013-06-14 08:32:00,82.6,76.2,29.71,SSW,202,3.2,-999.0,81,-99.99,,,0.00,Acu-Link.com,2013-06-14 12:32:00,
2013-06-14 08:47:00,82.6,75.8,29.71,WSW,247,4.2,-999.0,80,-99.99,,,0.00,Acu-Link.com,2013-06-14 12:47:00,
2013-06-14 09:02:00,82.2,75.8,29.72,West,270,4.2,-999.0,81,-99.99,,,0.00,Acu-Link.com,2013-06-14 13:02:00,
2013-06-14 09:18:00,83.5,76.7,29.73,WNW,292,6.3,-999.0,80,-99.99,,,0.00,Acu-Link.com,2013-06-14 13:18:00,
2013-06-14 09:33:00,83.5,75.9,29.73,WNW,292,7.3,-999.0,78,-99.99,,,0.00,Acu-Link.com,2013-06-14 13:33:00,
2013-06-14 09:48:00,82.2,75.8,29.73,West,270,5.3,-999.0,81,-99.99,,,0.00,Acu-Link.com,2013-06-14 13:48:00,
2013-06-14 10:03:00,83.5,75.5,29.73,WSW,247,10.4,-999.0,77,-99.99,,,0.00,Acu-Link.com,2013-06-14 14:03:00,
2013-06-14 10:19:00,84.2,74.2,29.72,West,270,7.8,-999.0,72,-99.99,,,0.00,Acu-Link.com,2013-06-14 14:19:00,
2013-06-14 10:34:00,84.6,75.0,29.72,WSW,247,3.2,-999.0,73,-99.99,,,0.00,Acu-Link.com,2013-06-14 14:34:00,
2013-06-14 10:49:00,85.1,74.6,29.72,WNW,292,6.8,-999.0,71,-99.99,,,0.00,Acu-Link.com,2013-06-14 14:49:00,
2013-06-14 11:04:00,87.1,75.7,29.72,WNW,292,5.8,-999.0,69,-99.99,,,0.00,Acu-Link.com,2013-06-14 15:04:00,
2013-06-14 11:19:00,84.9,75.3,29.74,WSW,247,4.2,-999.0,73,-99.99,,,0.00,Acu-Link.com,2013-06-14 15:19:00,
2013-06-14 11:35:00,86.9,74.6,29.75,WNW,292,5.3,-999.0,67,-99.99,,,0.00,Acu-Link.com,2013-06-14 15:35:00,
2013-06-14 11:50:00,88.0,74.3,29.73,West,270,6.8,-999.0,64,-99.99,,,0.00,Acu-Link.com,2013-06-14 15:50:00,
2013-06-14 12:05:00,88.9,74.6,29.72,West,270,4.7,-999.0,63,-99.99,,,0.00,Acu-Link.com,2013-06-14 16:05:00,
2013-06-14 12:20:00,88.5,74.3,29.72,NNW,337,4.2,-999.0,63,-99.99,,,0.00,Acu-Link.com,2013-06-14 16:20:00,
2013-06-14 12:35:00,88.0,74.3,29.72,West,270,6.8,-999.0,64,-99.99,,,0.00,Acu-Link.com,2013-06-14 16:35:00,
2013-06-14 12:51:00,87.6,73.9,29.71,North,0,3.2,-999.0,64,-99.99,,,0.00,Acu-Link.com,2013-06-14 16:51:00,
2013-06-14 13:06:00,86.7,73.0,29.72,West,270,8.3,-999.0,64,-99.99,,,0.00,Acu-Link.com,2013-06-14 17:06:00,
2013-06-14 13:21:00,88.3,73.1,29.72,West,270,4.2,-999.0,61,-99.99,,,0.00,Acu-Link.com,2013-06-14 17:21:00,
2013-06-14 13:36:00,86.7,73.5,29.71,NW,315,5.8,-999.0,65,-99.99,,,0.00,Acu-Link.com,2013-06-14 17:36:00,
2013-06-14 13:51:00,88.0,74.7,29.71,West,270,4.7,-999.0,65,-99.99,,,0.00,Acu-Link.com,2013-06-14 17:51:00,
2013-06-14 14:07:00,86.7,73.5,29.70,WNW,292,3.7,-999.0,65,-99.99,,,0.00,Acu-Link.com,2013-06-14 18:07:00,
2013-06-14 14:22:00,87.3,74.1,29.70,NNW,337,6.3,-999.0,65,-99.99,,,0.00,Acu-Link.com,2013-06-14 18:22:00,
2013-06-14 14:37:00,88.5,74.3,29.70,WNW,292,4.7,-999.0,63,-99.99,,,0.00,Acu-Link.com,2013-06-14 18:37:00,
2013-06-14 14:52:00,88.3,73.1,29.69,WSW,247,5.3,-999.0,61,-99.99,,,0.00,Acu-Link.com,2013-06-14 18:52:00,
2013-06-14 15:08:00,90.5,71.5,29.68,South,180,1.7,-999.0,54,-99.99,,,0.00,Acu-Link.com,2013-06-14 19:08:00,
2013-06-14 15:23:00,91.6,72.0,29.70,West,270,5.3,-999.0,53,-99.99,,,0.00,Acu-Link.com,2013-06-14 19:23:00,
2013-06-14 15:38:00,89.1,71.8,29.69,West,270,4.7,-999.0,57,-99.99,,,0.00,Acu-Link.com,2013-06-14 19:38:00,
2013-06-14 15:53:00,89.6,72.8,29.69,WSW,247,5.8,-999.0,58,-99.99,,,0.00,Acu-Link.com,2013-06-14 19:53:00,
2013-06-14 16:08:00,91.2,72.7,29.68,SSW,202,3.2,-999.0,55,-99.99,,,0.00,Acu-Link.com,2013-06-14 20:08:00,
2013-06-14 16:24:00,90.3,72.4,29.67,WNW,292,4.7,-999.0,56,-99.99,,,0.00,Acu-Link.com,2013-06-14 20:24:00,
2013-06-14 16:39:00,91.2,72.7,29.67,West,270,7.3,-999.0,55,-99.99,,,0.00,Acu-Link.com,2013-06-14 20:39:00,
2013-06-14 16:54:00,95.0,73.4,29.65,WSW,247,2.7,-999.0,50,-99.99,,,0.00,Acu-Link.com,2013-06-14 20:54:00,
2013-06-14 17:09:00,95.0,73.4,29.66,WSW,247,4.2,-999.0,50,-99.99,,,0.00,Acu-Link.com,2013-06-14 21:09:00,
2013-06-14 17:24:00,94.1,72.6,29.64,NW,315,5.3,-999.0,50,-99.99,,,0.00,Acu-Link.com,2013-06-14 21:24:00,
2013-06-14 17:40:00,92.1,73.0,29.67,West,270,4.2,-999.0,54,-99.99,,,0.00,Acu-Link.com,2013-06-14 21:40:00,
2013-06-14 17:55:00,90.9,71.9,29.68,West,270,9.4,-999.0,54,-99.99,,,0.00,Acu-Link.com,2013-06-14 21:55:00,
2013-06-14 18:10:00,88.7,71.5,29.68,SW,225,2.2,-999.0,57,-99.99,,,0.00,Acu-Link.com,2013-06-14 22:10:00,
2013-06-14 18:25:00,87.4,71.8,29.68,West,270,3.2,-999.0,60,-99.99,,,0.00,Acu-Link.com,2013-06-14 22:25:00,
2013-06-14 18:41:00,86.4,72.3,29.68,WSW,247,5.3,-999.0,63,-99.99,,,0.00,Acu-Link.com,2013-06-14 22:41:00,
2013-06-14 18:56:00,85.5,73.3,29.68,SW,225,6.8,-999.0,67,-99.99,,,0.00,Acu-Link.com,2013-06-14 22:56:00,
2013-06-14 19:11:00,85.1,73.3,29.67,West,270,3.2,-999.0,68,-99.99,,,0.00,Acu-Link.com,2013-06-14 23:11:00,
2013-06-14 19:26:00,84.6,73.7,29.67,SW,225,2.7,-999.0,70,-99.99,,,0.00,Acu-Link.com,2013-06-14 23:26:00,
2013-06-14 19:41:00,84.2,74.2,29.69,West,270,3.7,-999.0,72,-99.99,,,0.00,Acu-Link.com,2013-06-14 23:41:00,
2013-06-14 19:57:00,84.0,74.0,29.70,WSW,247,4.2,-999.0,72,-99.99,,,0.00,Acu-Link.com,2013-06-14 23:57:00,
2013-06-14 20:12:00,84.0,74.0,29.71,WNW,292,4.2,-999.0,72,-99.99,,,0.00,Acu-Link.com,2013-06-15 00:12:00,
2013-06-14 20:27:00,83.7,74.5,29.68,West,270,1.1,-999.0,74,-99.99,,,0.00,Acu-Link.com,2013-06-15 00:27:00,
2013-06-14 20:42:00,83.3,74.5,29.71,WNW,292,3.7,-999.0,75,-99.99,,,0.00,Acu-Link.com,2013-06-15 00:42:00,
2013-06-14 20:57:00,82.9,74.9,29.71,West,270,1.7,-999.0,77,-99.99,,,0.00,Acu-Link.com,2013-06-15 00:57:00,
2013-06-14 21:13:00,82.8,74.8,29.72,West,270,3.7,-999.0,77,-99.99,,,0.00,Acu-Link.com,2013-06-15 01:13:00,
2013-06-14 21:28:00,82.4,74.4,29.73,West,270,1.7,-999.0,77,-99.99,,,0.00,Acu-Link.com,2013-06-15 01:28:00,
2013-06-14 21:43:00,82.2,74.6,29.73,West,270,1.1,-999.0,78,-99.99,,,0.00,Acu-Link.com,2013-06-15 01:43:00,
2013-06-14 21:58:00,82.0,74.8,29.72,West,270,3.2,-999.0,79,-99.99,,,0.00,Acu-Link.com,2013-06-15 01:58:00,
2013-06-14 22:13:00,81.7,74.9,29.72,West,270,2.2,-999.0,80,-99.99,,,0.00,Acu-Link.com,2013-06-15 02:13:00,
2013-06-14 22:29:00,81.3,74.9,29.72,WSW,247,3.2,-999.0,81,-99.99,,,0.00,Acu-Link.com,2013-06-15 02:29:00,
2013-06-14 22:44:00,81.1,75.4,29.72,WSW,247,2.2,-999.0,83,-99.99,,,0.00,Acu-Link.com,2013-06-15 02:44:00,
2013-06-14 22:59:00,80.8,75.5,29.74,West,270,1.1,-999.0,84,-99.99,,,0.00,Acu-Link.com,2013-06-15 02:59:00,
2013-06-14 23:14:00,80.6,75.7,29.74,West,270,3.2,-999.0,85,-99.99,,,0.00,Acu-Link.com,2013-06-15 03:14:00,
2013-06-14 23:30:00,80.4,75.8,29.75,WSW,247,2.7,-999.0,86,-99.99,,,0.00,Acu-Link.com,2013-06-15 03:30:00,
2013-06-14 23:45:00,80.2,76.0,29.74,WSW,247,1.7,-999.0,87,-99.99,,,0.00,Acu-Link.com,2013-06-15 03:45:00,